STARLINK-1834 (46781 NORAD) Tracking and Keplerian Element Data
This shows tracking and keplerian element data for the satellite.
Feedback or suggestion? Click here.
Element | Value |
Catalog | 46781 |
Name | STARLINK-1834 |
Epoch Orbit | 176 |
Epoch Day | 14.91667824 |
Epoch Year | 2021 |
RAAN | 120.4405 |
Inclination | 53.0541 |
Eccentricity | 0.0001414 |
Argument of Perigee | 70.6164 |
Mean Anonmoly | 166.2028 |
Mean Motion | 15.20659137 |
Decay Rate | -0.0102308 |
L1 | 1 46781U 20074AU 21014.91667824 -.01023080 00000-0 -50092-1 0 9993 |
L2 | 2 46781 53.0541 120.4405 0001414 70.6164 166.2028 15.20659137 1764 |
Live tracking and technical data element details for STARLINK-1834 (NORAD 46781). STARLINK-1834 can be tracked NOW for your location showing map with azimuth and elevation plus other details from your city location.
Track the satellite on the map from your city or location and see movement details for azimuth, elevation, latitude, longitude, range, height, and movement on the map or in text.
IsCatalogInMostPopularTable: catalog: 46781, numindb: 30
Update: records affected: 1
GetName: 46781 STARLINK-1834
Hit Count: updated at: Fri, 15 Jan 2021 23:27:33 GMT